Current weather by "City, St" or "zip code"  
 

Current Conditions: JOHNSTOWN

Partly Cloudy


81.0 F

Last Updated on Jul 17 2024, 03:15 PM EDT
Humidity: 65%
Wind Speed: NW 5.8 mph
Barometer 29.82 in
Dewpoint: 68.2 F
Visibility: 10.00 mi
Precip: --
Heat Index: 83.8 F
Wind Chill: NA
Current conditions at:

JOHNSTOWN (KNY0)

Lat: 42.9799999 Lon: 74.33

active severe weather and emergency alerts image weather storm and storm spotter reports image weather observation monitoring service image
Active
Alerts
Storm Reports Obs
Monitoring

Sign-up For Email & Text Message Weather Alert Notification Services



Advertise Here

Observation History for JOHNSTOWN


Time Wind
(mph)
Vis
(mi)
Weather Precip (in) Temperature (F) Relative
Humidity
Wind
Chill
(F)
Heat
Index
(F)
Pressure
Air Dwpt altimeter
(in)
sea level
(mb)
Rmks
03:15 PM EDT NW 5.8 10.00 Partly Cloudy -- 81.0 68.2 65% NA 83.8 29.82 1009.8
02:35 PM EDT 3.4 10.00 Mostly Cloudy -- 80.4 69.8 70% NA 83.7 29.81 1009.5
01:55 PM EDT 3.4 10.00 Mostly Cloudy -- 79.7 70.3 73% NA 82.8 29.82 1009.8
01:35 PM EDT W 4.7 10.00 Mostly Cloudy -- 80.4 73.4 79% NA 85.1 29.83 1010.2
01:15 PM EDT 4.7 10.00 Partly Cloudy -- 78.4 73.9 86% NA 81.3 29.83 1010.2
12:15 PM EDT W 3.4 10.00 Cloudy 00.01 72.0 71.6 99% NA 73.6 29.85 1010.8
11:35 AM EDT W 3.4 10.00 Cloudy -- 77.0 67.3 72% NA 77.7 29.85 1010.8
11:15 AM EDT 0.0 10.00 Cloudy -- 77.0 67.8 73% NA 77.9 29.85 1010.8
10:55 AM EDT W 4.7 10.00 Partly Cloudy -- 78.3 68.5 72% NA 79.2 29.85 1010.8
10:35 AM EDT 0.0 10.00 Partly Cloudy -- 77.7 66.7 69% NA 78.4 29.85 1010.8
10:15 AM EDT 0.0 10.00 Clear -- 77.4 66.4 69% NA 78.1 29.85 1010.8
09:55 AM EDT 0.0 10.00 Partly Cloudy -- 76.5 65.8 70% NA 77.0 29.85 1010.8
09:35 AM EDT 0.0 10.00 Partly Cloudy -- 75.2 66.6 75% NA 75.9 29.85 1010.8
08:55 AM EDT 0.0 10.00 Partly Cloudy -- 72.5 68.4 87% NA 73.6 29.86 1011.2
08:35 AM EDT 0.0 10.00 Mostly Cloudy -- 70.0 69.4 98% NA NA 29.85 1010.8
08:15 AM EDT 0.0 10.00 Mostly Cloudy -- 69.1 68.5 98% NA NA 29.86 1011.2
07:55 AM EDT 0.0 10.00 Partly Cloudy -- 68.5 68.0 98% NA NA 29.85 1010.8
07:35 AM EDT 0.0 10.00 Partly Cloudy -- 67.8 67.3 98% NA NA 29.85 1010.8
07:15 AM EDT 0.0 10.00 Mostly Cloudy -- 67.3 66.7 98% NA NA 29.85 1010.8
06:55 AM EDT 0.0 10.00 Partly Cloudy -- 67.1 66.4 98% NA NA 29.85 1010.8
06:35 AM EDT 0.0 10.00 Partly Cloudy -- 65.3 64.6 98% NA NA 29.85 1010.8
05:55 AM EDT 0.0 0.75 Mostly Cloudy -- 63.7 63.3 99% NA NA 29.83 1010.2
05:35 AM EDT 0.0 0.25 Cloudy -- 63.5 63.0 98% NA NA 29.83 1010.2
04:55 AM EDT 0.0 0.25 Cloudy -- 63.1 62.8 99% NA NA 29.82 1009.8

Regional Weather Observation


JOHNSTOWN (KNY0)

Partly Cloudy
81.0 F